Time,TemperatureF,DewpointF,PressureIn,WindDirection,WindDirectionDegrees,WindSpeedMPH,WindSpeedGustMPH,Humidity,HourlyPrecipIn,Conditions,Clouds,dailyrainin,SoftwareType,DateUTC
2013-07-21 00:00:00,69.0,67.5,29.89,NNW,327,1.0,2.0,95,0.00,,---,0.72,VWS V14.01,2013-07-21 04:00:00,
2013-07-21 00:01:00,69.0,67.5,29.89,West,272,0.0,1.0,95,0.00,,---,0.00,VWS V14.01,2013-07-21 04:01:00,
2013-07-21 00:02:00,69.0,67.5,29.89,West,272,0.0,1.0,95,0.00,,---,0.00,VWS V14.01,2013-07-21 04:02:00,
2013-07-21 00:07:00,69.1,67.6,29.89,WSW,237,0.0,3.0,95,0.00,,---,0.00,VWS V14.01,2013-07-21 04:07:00,
2013-07-21 00:10:00,69.2,67.7,29.89,SW,234,0.0,3.0,95,0.00,,---,0.00,VWS V14.01,2013-07-21 04:10:00,
2013-07-21 00:12:00,69.2,67.7,29.89,SW,234,0.0,1.0,95,0.00,,---,0.00,VWS V14.01,2013-07-21 04:12:00,
2013-07-21 00:17:00,69.3,67.5,29.89,SW,229,0.0,2.0,94,0.00,,---,0.00,VWS V14.01,2013-07-21 04:17:00,
2013-07-21 00:20:00,69.3,67.5,29.89,WSW,244,0.0,2.0,94,0.00,,---,0.00,VWS V14.01,2013-07-21 04:20:00,
2013-07-21 00:30:00,68.8,67.6,29.89,SSW,206,0.0,2.0,96,0.00,,---,0.72,VWS V14.01,2013-07-21 04:30:00,
2013-07-21 00:40:00,68.9,67.4,29.89,SSW,205,0.0,5.0,95,0.00,,---,0.72,VWS V14.01,2013-07-21 04:40:00,
2013-07-21 00:50:00,69.0,67.5,29.88,SSW,205,1.0,6.0,95,0.00,,---,0.72,VWS V14.01,2013-07-21 04:50:00,
2013-07-21 01:00:00,69.0,67.5,29.89,NNW,327,1.0,2.0,95,0.00,,---,0.72,VWS V14.01,2013-07-21 05:00:00,
2013-07-21 01:10:00,69.2,67.7,29.89,SW,234,0.0,3.0,95,0.00,,---,0.00,VWS V14.01,2013-07-21 05:10:00,
2013-07-21 01:20:00,69.3,67.5,29.89,WSW,244,0.0,2.0,94,0.00,,---,0.00,VWS V14.01,2013-07-21 05:20:00,
2013-07-21 08:19:00,70.9,68.5,29.93,NW,317,3.0,3.0,92,0.01,,---,0.01,VWS V14.01,2013-07-21 12:19:00,
2013-07-21 08:20:00,70.9,68.5,29.93,NW,317,3.0,3.0,92,0.01,,---,0.01,VWS V14.01,2013-07-21 12:20:00,
2013-07-21 08:24:00,70.7,68.3,29.93,NNW,344,0.0,7.0,92,0.01,,---,0.02,VWS V14.01,2013-07-21 12:24:00,
2013-07-21 08:29:00,70.5,68.1,29.93,NNE,32,2.0,2.0,92,0.04,,---,0.05,VWS V14.01,2013-07-21 12:29:00,
2013-07-21 08:30:00,70.6,68.2,29.93,North,360,1.0,7.0,92,0.03,,---,0.04,VWS V14.01,2013-07-21 12:30:00,
2013-07-21 08:34:00,70.2,68.1,29.93,NNW,347,0.0,2.0,93,0.05,,---,0.06,VWS V14.01,2013-07-21 12:34:00,
2013-07-21 08:39:00,70.1,68.0,29.93,NNW,347,0.0,0.0,93,0.05,,---,0.06,VWS V14.01,2013-07-21 12:39:00,
2013-07-21 08:40:00,70.1,68.0,29.93,NNW,347,0.0,2.0,93,0.05,,---,0.06,VWS V14.01,2013-07-21 12:40:00,
2013-07-21 08:44:00,70.0,68.2,29.93,SSE,156,0.0,0.0,94,0.05,,---,0.06,VWS V14.01,2013-07-21 12:44:00,
2013-07-21 08:49:00,70.0,68.2,29.93,SSE,149,0.0,0.0,94,0.06,,---,0.07,VWS V14.01,2013-07-21 12:49:00,
2013-07-21 08:50:00,70.0,68.2,29.92,SSE,149,0.0,0.0,94,0.06,,---,0.07,VWS V14.01,2013-07-21 12:50:00,
2013-07-21 08:54:00,70.0,68.2,29.93,SSE,155,0.0,0.0,94,0.06,,---,0.07,VWS V14.01,2013-07-21 12:54:00,
2013-07-21 08:59:00,69.9,68.1,29.93,SSE,153,0.0,0.0,94,0.06,,---,0.07,VWS V14.01,2013-07-21 12:59:00,
2013-07-21 09:00:00,70.0,68.2,29.93,SSE,153,0.0,0.0,94,0.06,,---,0.07,VWS V14.01,2013-07-21 13:00:00,
2013-07-21 09:04:00,70.0,68.2,29.93,NE,43,0.0,2.0,94,0.06,,---,0.07,VWS V14.01,2013-07-21 13:04:00,
2013-07-21 09:09:00,70.0,68.2,29.93,NE,36,0.0,0.0,94,0.06,,---,0.07,VWS V14.01,2013-07-21 13:09:00,
2013-07-21 09:10:00,70.0,68.2,29.93,NE,36,0.0,2.0,94,0.06,,---,0.07,VWS V14.01,2013-07-21 13:10:00,
2013-07-21 09:14:00,70.1,68.3,29.92,East,85,0.0,0.0,94,0.06,,---,0.07,VWS V14.01,2013-07-21 13:14:00,
2013-07-21 09:19:00,70.2,68.4,29.92,ESE,119,0.0,0.0,94,0.06,,---,0.07,VWS V14.01,2013-07-21 13:19:00,
2013-07-21 09:20:00,70.2,68.4,29.92,ESE,120,0.0,0.0,94,0.06,,---,0.07,VWS V14.01,2013-07-21 13:20:00,
2013-07-21 09:24:00,70.4,68.6,29.92,SE,142,0.0,0.0,94,0.06,,---,0.07,VWS V14.01,2013-07-21 13:24:00,
2013-07-21 09:29:00,70.7,68.9,29.92,SSW,209,1.0,1.0,94,0.03,,---,0.07,VWS V14.01,2013-07-21 13:29:00,
2013-07-21 09:30:00,70.6,68.8,29.92,SSW,205,1.0,2.0,94,0.06,,---,0.07,VWS V14.01,2013-07-21 13:30:00,
2013-07-21 09:34:00,70.9,68.8,29.92,SW,218,1.0,2.0,93,0.03,,---,0.07,VWS V14.01,2013-07-21 13:34:00,
2013-07-21 09:39:00,71.2,69.1,29.92,SSE,161,0.0,0.0,93,0.01,,---,0.07,VWS V14.01,2013-07-21 13:39:00,
2013-07-21 09:40:00,71.1,69.0,29.92,SSW,198,0.0,3.0,93,0.03,,---,0.07,VWS V14.01,2013-07-21 13:40:00,
2013-07-21 09:44:00,71.5,69.1,29.92,SSW,205,2.0,2.0,92,0.01,,---,0.07,VWS V14.01,2013-07-21 13:44:00,
2013-07-21 09:49:00,72.1,69.3,29.92,SSE,168,2.0,4.0,91,0.00,,---,0.07,VWS V14.01,2013-07-21 13:49:00,
2013-07-21 09:50:00,72.0,69.6,29.92,SSE,153,4.0,5.0,92,0.01,,---,0.07,VWS V14.01,2013-07-21 13:50:00,
2013-07-21 09:54:00,72.8,69.7,29.92,SSE,166,2.0,4.0,90,0.00,,---,0.07,VWS V14.01,2013-07-21 13:54:00,
2013-07-21 09:59:00,73.3,69.5,29.91,South,182,3.0,6.0,88,0.00,,---,0.07,VWS V14.01,2013-07-21 13:59:00,
2013-07-21 10:00:00,73.2,69.8,29.91,SW,234,5.0,6.0,89,0.00,,---,0.07,VWS V14.01,2013-07-21 14:00:00,
2013-07-21 10:04:00,73.7,69.9,29.92,SSE,167,5.0,6.0,88,0.00,,---,0.07,VWS V14.01,2013-07-21 14:04:00,
2013-07-21 10:09:00,74.0,69.6,29.92,SW,214,5.0,5.0,86,0.00,,---,0.07,VWS V14.01,2013-07-21 14:09:00,
2013-07-21 10:10:00,73.9,69.4,29.92,SSW,200,4.0,6.0,86,0.00,,---,0.07,VWS V14.01,2013-07-21 14:10:00,
2013-07-21 10:14:00,74.1,70.0,29.92,WSW,246,1.0,5.0,87,0.00,,---,0.07,VWS V14.01,2013-07-21 14:14:00,
2013-07-21 10:19:00,74.3,69.8,29.92,SSW,204,2.0,4.0,86,0.00,,---,0.07,VWS V14.01,2013-07-21 14:19:00,
2013-07-21 10:20:00,74.3,69.8,29.92,SSE,168,4.0,5.0,86,0.00,,---,0.07,VWS V14.01,2013-07-21 14:20:00,
2013-07-21 10:24:00,74.5,70.0,29.92,WSW,244,2.0,4.0,86,0.00,,---,0.07,VWS V14.01,2013-07-21 14:24:00,
2013-07-21 10:29:00,74.5,70.0,29.92,WSW,241,3.0,5.0,86,0.00,,---,0.07,VWS V14.01,2013-07-21 14:29:00,
2013-07-21 10:30:00,74.6,70.1,29.92,SW,214,0.0,6.0,86,0.00,,---,0.07,VWS V14.01,2013-07-21 14:30:00,
2013-07-21 10:35:00,74.5,69.3,29.92,SSW,207,1.0,6.0,84,0.00,,---,0.07,VWS V14.01,2013-07-21 14:35:00,
2013-07-21 10:40:00,74.7,70.2,29.92,WSW,246,0.0,1.0,86,0.00,,---,0.07,VWS V14.01,2013-07-21 14:40:00,
2013-07-21 10:45:00,75.0,70.5,29.92,SW,236,0.0,5.0,86,0.00,,---,0.07,VWS V14.01,2013-07-21 14:45:00,
2013-07-21 10:50:00,75.4,70.2,29.92,SSW,207,1.0,1.0,84,0.00,,---,0.07,VWS V14.01,2013-07-21 14:50:00,
2013-07-21 10:55:00,75.4,70.6,29.92,NNW,344,0.0,3.0,85,0.00,,---,0.07,VWS V14.01,2013-07-21 14:55:00,
2013-07-21 11:00:00,75.6,70.4,29.92,WSW,237,0.0,0.0,84,0.00,,---,0.07,VWS V14.01,2013-07-21 15:00:00,
2013-07-21 11:05:00,75.7,70.5,29.92,WSW,250,0.0,1.0,84,0.00,,---,0.07,VWS V14.01,2013-07-21 15:05:00,
2013-07-21 11:10:00,75.8,70.3,29.92,WSW,246,2.0,2.0,83,0.00,,---,0.07,VWS V14.01,2013-07-21 15:10:00,
2013-07-21 11:15:00,75.5,70.0,29.92,SW,226,1.0,3.0,83,0.00,,---,0.07,VWS V14.01,2013-07-21 15:15:00,
2013-07-21 11:20:00,75.4,69.9,29.92,WSW,248,0.0,0.0,83,0.00,,---,0.07,VWS V14.01,2013-07-21 15:20:00,
2013-07-21 11:25:00,75.4,70.2,29.92,ESE,111,0.0,1.0,84,0.00,,---,0.07,VWS V14.01,2013-07-21 15:25:00,
2013-07-21 11:30:00,75.7,70.5,29.92,WSW,240,0.0,1.0,84,0.00,,---,0.07,VWS V14.01,2013-07-21 15:30:00,
2013-07-21 11:35:00,75.6,70.1,29.92,WSW,237,0.0,1.0,83,0.00,,---,0.07,VWS V14.01,2013-07-21 15:35:00,
2013-07-21 11:40:00,75.7,70.2,29.93,NNW,340,0.0,0.0,83,0.00,,---,0.07,VWS V14.01,2013-07-21 15:40:00,
2013-07-21 11:45:00,76.0,70.5,29.93,WSW,254,0.0,0.0,83,0.00,,---,0.07,VWS V14.01,2013-07-21 15:45:00,
2013-07-21 11:50:00,76.2,70.3,29.93,WSW,245,0.0,0.0,82,0.00,,---,0.07,VWS V14.01,2013-07-21 15:50:00,
2013-07-21 11:55:00,75.8,69.9,29.93,WSW,246,0.0,1.0,82,0.00,,---,0.07,VWS V14.01,2013-07-21 15:55:00,
2013-07-21 12:00:00,76.0,70.8,29.93,WSW,255,0.0,0.0,84,0.00,,---,0.07,VWS V14.01,2013-07-21 16:00:00,
2013-07-21 12:05:00,75.8,69.9,29.94,SW,236,0.0,3.0,82,0.00,,---,0.07,VWS V14.01,2013-07-21 16:05:00,
2013-07-21 12:10:00,75.5,70.3,29.94,WSW,238,0.0,1.0,84,0.00,,---,0.07,VWS V14.01,2013-07-21 16:10:00,
2013-07-21 12:15:00,75.6,70.1,29.93,SSE,168,0.0,4.0,83,0.00,,---,0.07,VWS V14.01,2013-07-21 16:15:00,
2013-07-21 12:20:00,75.6,70.1,29.93,SE,128,0.0,1.0,83,0.00,,---,0.07,VWS V14.01,2013-07-21 16:20:00,
2013-07-21 12:25:00,75.4,69.9,29.93,SE,129,1.0,4.0,83,0.00,,---,0.07,VWS V14.01,2013-07-21 16:25:00,
2013-07-21 12:30:00,75.4,70.2,29.93,SE,130,0.0,0.0,84,0.00,,---,0.07,VWS V14.01,2013-07-21 16:30:00,
2013-07-21 12:35:00,75.7,70.2,29.93,SSE,153,0.0,1.0,83,0.00,,---,0.07,VWS V14.01,2013-07-21 16:35:00,
2013-07-21 12:40:00,75.9,70.4,29.93,SSW,198,0.0,0.0,83,0.00,,---,0.07,VWS V14.01,2013-07-21 16:40:00,
2013-07-21 12:45:00,76.4,70.9,29.93,SW,232,0.0,0.0,83,0.00,,---,0.07,VWS V14.01,2013-07-21 16:45:00,
2013-07-21 12:50:00,76.8,70.9,29.93,WSW,254,0.0,0.0,82,0.00,,---,0.07,VWS V14.01,2013-07-21 16:50:00,
2013-07-21 12:55:00,77.3,71.0,29.93,WSW,248,0.0,0.0,81,0.00,,---,0.07,VWS V14.01,2013-07-21 16:55:00,
2013-07-21 13:00:00,77.7,71.4,29.93,NW,322,0.0,0.0,81,0.00,,---,0.07,VWS V14.01,2013-07-21 17:00:00,
2013-07-21 13:05:00,77.9,70.9,29.93,WNW,292,0.0,0.0,79,0.00,,---,0.07,VWS V14.01,2013-07-21 17:05:00,
2013-07-21 13:10:00,78.1,70.7,29.93,WSW,241,0.0,0.0,78,0.00,,---,0.07,VWS V14.01,2013-07-21 17:10:00,
2013-07-21 13:15:00,78.4,72.4,29.93,WSW,252,0.0,0.0,82,0.00,,---,0.07,VWS V14.01,2013-07-21 17:15:00,
2013-07-21 13:20:00,78.5,71.1,29.93,WSW,256,0.0,3.0,78,0.00,,---,0.07,VWS V14.01,2013-07-21 17:20:00,
2013-07-21 13:25:00,78.6,71.2,29.93,SW,227,0.0,3.0,78,0.00,,---,0.07,VWS V14.01,2013-07-21 17:25:00,
2013-07-21 13:30:00,78.5,71.1,29.93,SSE,153,0.0,2.0,78,0.00,,---,0.07,VWS V14.01,2013-07-21 17:30:00,
2013-07-21 13:35:00,78.2,71.2,29.93,SW,230,1.0,5.0,79,0.00,,---,0.07,VWS V14.01,2013-07-21 17:35:00,
2013-07-21 13:40:00,77.8,70.8,29.93,SW,218,2.0,4.0,79,0.00,,---,0.07,VWS V14.01,2013-07-21 17:40:00,
2013-07-21 13:46:00,77.8,71.5,29.93,SSW,207,2.0,4.0,81,0.00,,---,0.07,VWS V14.01,2013-07-21 17:46:00,
2013-07-21 13:50:00,77.8,71.9,29.93,WNW,301,0.0,4.0,82,0.00,,---,0.07,VWS V14.01,2013-07-21 17:50:00,
2013-07-21 13:51:00,78.0,71.7,29.93,SW,230,0.0,1.0,81,0.00,,---,0.07,VWS V14.01,2013-07-21 17:51:00,
2013-07-21 13:56:00,78.4,72.1,29.93,SW,219,2.0,2.0,81,0.00,,---,0.07,VWS V14.01,2013-07-21 17:56:00,
2013-07-21 14:00:00,78.2,71.5,29.93,SSW,199,2.0,4.0,80,0.00,,---,0.07,VWS V14.01,2013-07-21 18:00:00,
2013-07-21 14:01:00,78.1,71.4,29.93,WSW,240,3.0,4.0,80,0.00,,---,0.07,VWS V14.01,2013-07-21 18:01:00,
2013-07-21 14:06:00,78.1,71.1,29.92,WSW,246,2.0,4.0,79,0.00,,---,0.07,VWS V14.01,2013-07-21 18:06:00,
2013-07-21 14:10:00,78.3,71.3,29.92,SE,133,0.0,4.0,79,0.00,,---,0.07,VWS V14.01,2013-07-21 18:10:00,
2013-07-21 14:11:00,78.5,71.4,29.92,SSW,206,0.0,3.0,79,0.00,,---,0.07,VWS V14.01,2013-07-21 18:11:00,
2013-07-21 14:16:00,79.0,71.6,29.92,West,265,1.0,3.0,78,0.00,,---,0.07,VWS V14.01,2013-07-21 18:16:00,
2013-07-21 14:20:00,79.4,72.3,29.92,SSW,211,1.0,3.0,79,0.00,,---,0.07,VWS V14.01,2013-07-21 18:20:00,
2013-07-21 14:21:00,79.6,71.8,29.92,SSE,167,6.0,6.0,77,0.00,,---,0.07,VWS V14.01,2013-07-21 18:21:00,
2013-07-21 14:26:00,79.3,72.2,29.92,SSE,168,1.0,6.0,79,0.00,,---,0.07,VWS V14.01,2013-07-21 18:26:00,
2013-07-21 14:30:00,79.6,72.1,29.92,South,191,0.0,6.0,78,0.00,,---,0.07,VWS V14.01,2013-07-21 18:30:00,
2013-07-21 14:31:00,79.7,71.1,29.92,WNW,284,0.0,3.0,75,0.00,,---,0.07,VWS V14.01,2013-07-21 18:31:00,
2013-07-21 14:36:00,79.9,70.9,29.91,SSW,200,3.0,5.0,74,0.00,,---,0.07,VWS V14.01,2013-07-21 18:36:00,
2013-07-21 14:40:00,79.7,71.1,29.91,NW,310,0.0,5.0,75,0.00,,---,0.07,VWS V14.01,2013-07-21 18:40:00,
2013-07-21 14:41:00,79.6,71.0,29.91,SSE,151,0.0,2.0,75,0.00,,---,0.07,VWS V14.01,2013-07-21 18:41:00,
2013-07-21 14:46:00,79.6,71.0,29.91,SW,215,1.0,2.0,75,0.00,,---,0.07,VWS V14.01,2013-07-21 18:46:00,
2013-07-21 14:50:00,79.4,71.2,29.91,SW,230,2.0,2.0,76,0.00,,---,0.07,VWS V14.01,2013-07-21 18:50:00,
2013-07-21 14:51:00,79.5,71.3,29.91,SW,230,3.0,3.0,76,0.00,,---,0.07,VWS V14.01,2013-07-21 18:51:00,
2013-07-21 14:56:00,79.2,71.8,29.90,SSW,210,3.0,4.0,78,0.00,,---,0.07,VWS V14.01,2013-07-21 18:56:00,
2013-07-21 15:00:00,79.5,72.0,29.90,SSW,203,2.0,4.0,78,0.00,,---,0.07,VWS V14.01,2013-07-21 19:00:00,
2013-07-21 15:01:00,79.7,71.9,29.90,SW,231,1.0,4.0,77,0.00,,---,0.07,VWS V14.01,2013-07-21 19:01:00,
2013-07-21 15:06:00,79.9,71.3,29.90,South,191,3.0,6.0,75,0.00,,---,0.07,VWS V14.01,2013-07-21 19:06:00,
2013-07-21 15:10:00,80.1,72.2,29.90,SSW,213,3.0,6.0,77,0.00,,---,0.07,VWS V14.01,2013-07-21 19:10:00,
2013-07-21 15:11:00,80.3,72.1,29.90,West,273,1.0,4.0,76,0.00,,---,0.07,VWS V14.01,2013-07-21 19:11:00,
2013-07-21 15:16:00,80.6,71.9,29.90,WSW,244,0.0,5.0,75,0.00,,---,0.07,VWS V14.01,2013-07-21 19:16:00,
2013-07-21 15:20:00,80.7,71.7,29.90,NW,317,2.0,5.0,74,0.00,,---,0.07,VWS V14.01,2013-07-21 19:20:00,
2013-07-21 15:21:00,80.4,71.0,29.90,NE,44,0.0,3.0,73,0.00,,---,0.07,VWS V14.01,2013-07-21 19:21:00,
2013-07-21 15:26:00,80.4,72.2,29.89,SSW,211,2.0,3.0,76,0.00,,---,0.07,VWS V14.01,2013-07-21 19:26:00,
2013-07-21 15:30:00,80.6,71.9,29.89,SSW,213,3.0,5.0,75,0.00,,---,0.07,VWS V14.01,2013-07-21 19:30:00,
2013-07-21 15:31:00,80.9,72.6,29.90,SSW,207,1.0,5.0,76,0.00,,---,0.07,VWS V14.01,2013-07-21 19:31:00,
2013-07-21 15:36:00,81.4,71.1,29.89,SW,227,0.0,5.0,71,0.00,,---,0.07,VWS V14.01,2013-07-21 19:36:00,
2013-07-21 15:40:00,81.6,71.3,29.89,West,271,0.0,5.0,71,0.00,,---,0.07,VWS V14.01,2013-07-21 19:40:00,
2013-07-21 15:41:00,82.1,73.0,29.89,SW,227,3.0,3.0,74,0.00,,---,0.07,VWS V14.01,2013-07-21 19:41:00,
2013-07-21 15:46:00,82.1,70.5,29.89,SW,227,0.0,4.0,68,0.00,,---,0.07,VWS V14.01,2013-07-21 19:46:00,
2013-07-21 15:50:00,82.1,71.3,29.89,South,180,2.0,5.0,70,0.00,,---,0.07,VWS V14.01,2013-07-21 19:50:00,
2013-07-21 15:51:00,81.9,71.2,29.89,SSE,168,1.0,7.0,70,0.00,,---,0.07,VWS V14.01,2013-07-21 19:51:00,
2013-07-21 15:56:00,82.0,71.3,29.89,West,271,1.0,7.0,70,0.00,,---,0.07,VWS V14.01,2013-07-21 19:56:00,
2013-07-21 16:00:00,82.1,70.5,29.89,NW,311,0.0,7.0,68,0.00,,---,0.07,VWS V14.01,2013-07-21 20:00:00,
2013-07-21 16:01:00,82.1,70.9,29.89,WSW,258,0.0,4.0,69,0.00,,---,0.07,VWS V14.01,2013-07-21 20:01:00,
2013-07-21 16:06:00,81.9,70.3,29.89,SW,232,3.0,4.0,68,0.00,,---,0.07,VWS V14.01,2013-07-21 20:06:00,
2013-07-21 16:10:00,81.9,71.6,29.89,SSE,159,2.0,5.0,71,0.00,,---,0.07,VWS V14.01,2013-07-21 20:10:00,
2013-07-21 16:11:00,81.6,70.4,29.89,SW,232,0.0,3.0,69,0.00,,---,0.07,VWS V14.01,2013-07-21 20:11:00,
2013-07-21 16:16:00,82.0,71.3,29.89,SSW,202,0.0,3.0,70,0.00,,---,0.07,VWS V14.01,2013-07-21 20:16:00,
2013-07-21 16:20:00,82.4,70.8,29.89,South,173,2.0,3.0,68,0.00,,---,0.07,VWS V14.01,2013-07-21 20:20:00,
2013-07-21 16:21:00,82.4,70.8,29.89,South,188,1.0,6.0,68,0.00,,---,0.07,VWS V14.01,2013-07-21 20:21:00,
2013-07-21 16:26:00,82.1,70.9,29.88,SSW,202,4.0,6.0,69,0.00,,---,0.07,VWS V14.01,2013-07-21 20:26:00,
2013-07-21 16:30:00,82.1,71.3,29.88,WSW,242,3.0,6.0,70,0.00,,---,0.07,VWS V14.01,2013-07-21 20:30:00,
2013-07-21 16:31:00,82.0,71.3,29.88,South,191,1.0,4.0,70,0.00,,---,0.07,VWS V14.01,2013-07-21 20:31:00,
2013-07-21 16:36:00,82.1,70.9,29.88,East,96,0.0,4.0,69,0.00,,---,0.07,VWS V14.01,2013-07-21 20:36:00,
2013-07-21 16:40:00,82.4,70.8,29.88,SSE,159,2.0,5.0,68,0.00,,---,0.07,VWS V14.01,2013-07-21 20:40:00,
2013-07-21 16:41:00,82.5,70.9,29.88,WSW,237,2.0,5.0,68,0.00,,---,0.07,VWS V14.01,2013-07-21 20:41:00,
2013-07-21 16:46:00,82.6,71.0,29.87,SSE,150,2.0,5.0,68,0.00,,---,0.07,VWS V14.01,2013-07-21 20:46:00,
2013-07-21 16:50:00,82.6,71.4,29.87,SSE,164,4.0,6.0,69,0.00,,---,0.07,VWS V14.01,2013-07-21 20:50:00,
2013-07-21 16:51:00,82.4,70.8,29.87,SSW,196,5.0,6.0,68,0.00,,---,0.07,VWS V14.01,2013-07-21 20:51:00,
2013-07-21 16:56:00,82.4,71.6,29.87,WSW,246,0.0,6.0,70,0.00,,---,0.07,VWS V14.01,2013-07-21 20:56:00,
2013-07-21 17:00:00,82.7,71.1,29.87,WSW,242,0.0,6.0,68,0.00,,---,0.07,VWS V14.01,2013-07-21 21:00:00,
2013-07-21 17:01:00,83.3,72.5,29.87,WSW,242,0.0,0.0,70,0.00,,---,0.07,VWS V14.01,2013-07-21 21:01:00,
2013-07-21 17:06:00,83.6,71.1,29.87,West,267,2.0,4.0,66,0.00,,---,0.07,VWS V14.01,2013-07-21 21:06:00,
2013-07-21 17:10:00,83.7,71.1,29.87,SW,222,1.0,4.0,66,0.00,,---,0.07,VWS V14.01,2013-07-21 21:10:00,
2013-07-21 17:11:00,83.6,71.1,29.86,SSW,195,2.0,5.0,66,0.00,,---,0.07,VWS V14.01,2013-07-21 21:11:00,
2013-07-21 17:16:00,83.4,72.2,29.87,SW,214,0.0,5.0,69,0.00,,---,0.07,VWS V14.01,2013-07-21 21:16:00,
2013-07-21 17:20:00,83.6,71.5,29.87,SW,215,1.0,5.0,67,0.00,,---,0.07,VWS V14.01,2013-07-21 21:20:00,
2013-07-21 17:21:00,84.0,71.4,29.87,SSE,164,0.0,2.0,66,0.00,,---,0.07,VWS V14.01,2013-07-21 21:21:00,
2013-07-21 17:27:00,84.1,71.1,29.86,West,265,1.0,4.0,65,0.00,,---,0.07,VWS V14.01,2013-07-21 21:27:00,
2013-07-21 17:30:00,83.9,71.3,29.86,SW,227,0.0,4.0,66,0.00,,---,0.07,VWS V14.01,2013-07-21 21:30:00,
2013-07-21 17:32:00,83.9,72.2,29.86,South,180,0.0,3.0,68,0.00,,---,0.07,VWS V14.01,2013-07-21 21:32:00,
2013-07-21 17:37:00,83.9,71.8,29.86,SW,227,0.0,3.0,67,0.00,,---,0.07,VWS V14.01,2013-07-21 21:37:00,
2013-07-21 17:40:00,84.0,71.4,29.86,West,264,0.0,3.0,66,0.00,,---,0.07,VWS V14.01,2013-07-21 21:40:00,
2013-07-21 17:42:00,84.2,71.6,29.86,WSW,241,4.0,4.0,66,0.00,,---,0.07,VWS V14.01,2013-07-21 21:42:00,
2013-07-21 17:47:00,83.3,70.3,29.86,West,264,0.0,5.0,65,0.00,,---,0.07,VWS V14.01,2013-07-21 21:47:00,
2013-07-21 17:50:00,83.2,71.1,29.86,SSW,200,3.0,5.0,67,0.00,,---,0.07,VWS V14.01,2013-07-21 21:50:00,
2013-07-21 17:52:00,83.2,71.1,29.86,SSE,160,0.0,5.0,67,0.00,,---,0.07,VWS V14.01,2013-07-21 21:52:00,
2013-07-21 17:57:00,83.3,72.1,29.86,SW,219,0.0,5.0,69,0.00,,---,0.07,VWS V14.01,2013-07-21 21:57:00,
2013-07-21 18:00:00,83.6,72.4,29.86,SW,236,2.0,5.0,69,0.00,,---,0.07,VWS V14.01,2013-07-21 22:00:00,
2013-07-21 18:02:00,83.6,71.5,29.85,SSW,213,0.0,3.0,67,0.00,,---,0.07,VWS V14.01,2013-07-21 22:02:00,
2013-07-21 18:07:00,82.9,71.3,29.86,SW,227,1.0,4.0,68,0.00,,---,0.07,VWS V14.01,2013-07-21 22:07:00,
2013-07-21 18:10:00,82.6,71.0,29.86,SW,222,1.0,4.0,68,0.00,,---,0.07,VWS V14.01,2013-07-21 22:10:00,
2013-07-21 18:12:00,82.0,70.4,29.86,SW,219,3.0,3.0,68,0.00,,---,0.07,VWS V14.01,2013-07-21 22:12:00,
2013-07-21 18:17:00,81.5,70.4,29.86,SW,229,2.0,4.0,69,0.00,,---,0.07,VWS V14.01,2013-07-21 22:17:00,
2013-07-21 18:20:00,81.4,70.7,29.86,West,273,0.0,4.0,70,0.00,,---,0.07,VWS V14.01,2013-07-21 22:20:00,
2013-07-21 18:22:00,81.5,71.2,29.86,SSW,203,3.0,4.0,71,0.00,,---,0.07,VWS V14.01,2013-07-21 22:22:00,
2013-07-21 18:27:00,81.1,70.8,29.86,SW,215,1.0,4.0,71,0.00,,---,0.07,VWS V14.01,2013-07-21 22:27:00,
2013-07-21 18:30:00,81.0,71.1,29.86,SW,234,0.0,4.0,72,0.00,,---,0.07,VWS V14.01,2013-07-21 22:30:00,
2013-07-21 18:32:00,80.9,70.6,29.86,SSW,207,2.0,3.0,71,0.00,,---,0.07,VWS V14.01,2013-07-21 22:32:00,
2013-07-21 18:37:00,80.7,70.0,29.86,SW,222,1.0,3.0,70,0.00,,---,0.07,VWS V14.01,2013-07-21 22:37:00,
2013-07-21 18:40:00,80.8,70.1,29.86,SW,226,0.0,3.0,70,0.00,,---,0.07,VWS V14.01,2013-07-21 22:40:00,
2013-07-21 18:42:00,81.2,70.9,29.86,South,173,0.0,1.0,71,0.00,,---,0.07,VWS V14.01,2013-07-21 22:42:00,
2013-07-21 18:47:00,81.7,71.0,29.86,SSW,206,0.0,1.0,70,0.00,,---,0.07,VWS V14.01,2013-07-21 22:47:00,
2013-07-21 18:50:00,81.9,71.2,29.86,WNW,292,0.0,2.0,70,0.00,,---,0.07,VWS V14.01,2013-07-21 22:50:00,
2013-07-21 18:52:00,82.3,70.7,29.86,WSW,246,1.0,2.0,68,0.00,,---,0.07,VWS V14.01,2013-07-21 22:52:00,
2013-07-21 18:57:00,82.6,71.0,29.86,WSW,250,0.0,3.0,68,0.00,,---,0.07,VWS V14.01,2013-07-21 22:57:00,
2013-07-21 19:00:00,82.8,71.2,29.86,SW,227,2.0,3.0,68,0.00,,---,0.07,VWS V14.01,2013-07-21 23:00:00,
2013-07-21 19:02:00,82.7,70.6,29.86,WSW,250,0.0,3.0,67,0.00,,---,0.07,VWS V14.01,2013-07-21 23:02:00,
2013-07-21 19:07:00,82.7,70.6,29.86,WSW,238,0.0,3.0,67,0.00,,---,0.07,VWS V14.01,2013-07-21 23:07:00,
2013-07-21 19:10:00,82.6,71.0,29.86,South,191,0.0,3.0,68,0.00,,---,0.07,VWS V14.01,2013-07-21 23:10:00,
2013-07-21 19:12:00,82.2,70.6,29.86,WSW,241,0.0,2.0,68,0.00,,---,0.07,VWS V14.01,2013-07-21 23:12:00,
2013-07-21 19:17:00,81.8,71.1,29.86,WSW,256,0.0,2.0,70,0.00,,---,0.07,VWS V14.01,2013-07-21 23:17:00,
2013-07-21 19:20:00,81.8,71.1,29.86,West,262,0.0,2.0,70,0.00,,---,0.07,VWS V14.01,2013-07-21 23:20:00,
2013-07-21 19:22:00,82.1,71.3,29.86,WSW,253,0.0,0.0,70,0.00,,---,0.07,VWS V14.01,2013-07-21 23:22:00,
2013-07-21 19:27:00,82.4,71.6,29.86,WSW,237,0.0,0.0,70,0.00,,---,0.07,VWS V14.01,2013-07-21 23:27:00,
2013-07-21 19:30:00,82.4,71.2,29.86,SW,222,0.0,0.0,69,0.00,,---,0.07,VWS V14.01,2013-07-21 23:30:00,
2013-07-21 19:32:00,81.9,70.7,29.86,SW,214,1.0,3.0,69,0.00,,---,0.07,VWS V14.01,2013-07-21 23:32:00,
2013-07-21 19:37:00,81.6,70.9,29.86,SSE,159,1.0,3.0,70,0.00,,---,0.07,VWS V14.01,2013-07-21 23:37:00,
2013-07-21 19:40:00,81.5,71.2,29.86,SW,219,2.0,3.0,71,0.00,,---,0.07,VWS V14.01,2013-07-21 23:40:00,
2013-07-21 19:42:00,81.2,70.9,29.86,SSW,211,2.0,4.0,71,0.00,,---,0.07,VWS V14.01,2013-07-21 23:42:00,
2013-07-21 19:47:00,80.5,70.7,29.86,South,184,1.0,4.0,72,0.00,,---,0.07,VWS V14.01,2013-07-21 23:47:00,
2013-07-21 19:50:00,80.4,70.6,29.86,South,184,2.0,4.0,72,0.00,,---,0.07,VWS V14.01,2013-07-21 23:50:00,
2013-07-21 19:52:00,80.1,70.7,29.86,SW,227,2.0,3.0,73,0.00,,---,0.07,VWS V14.01,2013-07-21 23:52:00,
2013-07-21 19:57:00,79.6,71.0,29.86,SSW,207,1.0,3.0,75,0.00,,---,0.07,VWS V14.01,2013-07-21 23:57:00,
2013-07-21 20:00:00,79.6,71.0,29.86,SW,225,0.0,3.0,75,0.00,,---,0.07,VWS V14.01,2013-07-22 00:00:00,
2013-07-21 20:02:00,79.3,70.7,29.86,SSW,205,0.0,2.0,75,0.00,,---,0.07,VWS V14.01,2013-07-22 00:02:00,
2013-07-21 20:07:00,79.1,70.5,29.86,SW,215,0.0,2.0,75,0.00,,---,0.07,VWS V14.01,2013-07-22 00:07:00,
2013-07-21 20:10:00,79.1,70.9,29.86,SSW,195,0.0,2.0,76,0.00,,---,0.07,VWS V14.01,2013-07-22 00:10:00,
2013-07-21 20:12:00,79.0,70.8,29.86,WSW,238,0.0,0.0,76,0.00,,---,0.07,VWS V14.01,2013-07-22 00:12:00,
2013-07-21 20:17:00,78.8,71.0,29.86,WSW,240,0.0,0.0,77,0.00,,---,0.07,VWS V14.01,2013-07-22 00:17:00,
2013-07-21 20:20:00,78.8,71.4,29.86,WSW,240,0.0,0.0,78,0.00,,---,0.07,VWS V14.01,2013-07-22 00:20:00,
2013-07-21 20:22:00,78.7,71.3,29.86,WSW,240,0.0,0.0,78,0.00,,---,0.07,VWS V14.01,2013-07-22 00:22:00,
2013-07-21 20:27:00,78.3,71.3,29.86,WSW,240,0.0,0.0,79,0.00,,---,0.07,VWS V14.01,2013-07-22 00:27:00,
2013-07-21 20:30:00,78.3,70.9,29.86,WSW,240,0.0,0.0,78,0.00,,---,0.07,VWS V14.01,2013-07-22 00:30:00,
2013-07-21 20:32:00,78.1,71.1,29.86,WSW,240,0.0,0.0,79,0.00,,---,0.07,VWS V14.01,2013-07-22 00:32:00,
2013-07-21 20:37:00,77.8,71.1,29.86,WSW,240,0.0,0.0,80,0.00,,---,0.07,VWS V14.01,2013-07-22 00:37:00,
2013-07-21 20:40:00,77.7,71.0,29.86,WSW,240,0.0,0.0,80,0.00,,---,0.07,VWS V14.01,2013-07-22 00:40:00,
2013-07-21 20:42:00,77.2,70.9,29.87,WSW,239,0.0,0.0,81,0.00,,---,0.07,VWS V14.01,2013-07-22 00:42:00,
2013-07-21 20:47:00,76.7,70.4,29.87,WSW,240,0.0,0.0,81,0.00,,---,0.07,VWS V14.01,2013-07-22 00:47:00,
2013-07-21 20:50:00,76.6,70.7,29.87,WSW,240,0.0,0.0,82,0.00,,---,0.07,VWS V14.01,2013-07-22 00:50:00,
2013-07-21 20:53:00,76.4,70.9,29.87,WSW,240,0.0,0.0,83,0.00,,---,0.07,VWS V14.01,2013-07-22 00:53:00,
2013-07-21 20:58:00,75.9,70.4,29.87,WSW,240,0.0,0.0,83,0.00,,---,0.07,VWS V14.01,2013-07-22 00:58:00,
2013-07-21 21:00:00,75.9,70.7,29.87,WSW,238,0.0,0.0,84,0.00,,---,0.07,VWS V14.01,2013-07-22 01:00:00,
2013-07-21 21:03:00,75.7,70.9,29.87,SSE,156,0.0,0.0,85,0.00,,---,0.07,VWS V14.01,2013-07-22 01:03:00,
2013-07-21 21:08:00,75.5,71.0,29.87,SW,222,0.0,1.0,86,0.00,,---,0.07,VWS V14.01,2013-07-22 01:08:00,
2013-07-21 21:10:00,75.4,71.3,29.87,SW,222,0.0,1.0,87,0.00,,---,0.07,VWS V14.01,2013-07-22 01:10:00,
2013-07-21 21:13:00,75.2,71.1,29.87,SW,222,0.0,0.0,87,0.00,,---,0.07,VWS V14.01,2013-07-22 01:13:00,
2013-07-21 21:18:00,75.0,70.9,29.87,SW,222,0.0,0.0,87,0.00,,---,0.07,VWS V14.01,2013-07-22 01:18:00,
2013-07-21 21:20:00,74.9,71.1,29.87,SW,222,0.0,0.0,88,0.00,,---,0.07,VWS V14.01,2013-07-22 01:20:00,
2013-07-21 21:23:00,74.7,70.9,29.88,SW,222,0.0,0.0,88,0.00,,---,0.07,VWS V14.01,2013-07-22 01:23:00,
2013-07-21 21:28:00,74.7,70.9,29.88,NNW,347,2.0,5.0,88,0.00,,---,0.07,VWS V14.01,2013-07-22 01:28:00,
2013-07-21 21:30:00,74.7,70.9,29.88,North,351,0.0,5.0,88,0.00,,---,0.07,VWS V14.01,2013-07-22 01:30:00,
2013-07-21 21:33:00,74.8,70.7,29.88,NNE,31,0.0,1.0,87,0.00,,---,0.07,VWS V14.01,2013-07-22 01:33:00,
2013-07-21 21:38:00,74.7,70.9,29.88,NNW,346,0.0,3.0,88,0.00,,---,0.07,VWS V14.01,2013-07-22 01:38:00,
2013-07-21 21:40:00,74.6,70.8,29.88,WNW,302,1.0,3.0,88,0.00,,---,0.07,VWS V14.01,2013-07-22 01:40:00,
2013-07-21 21:43:00,74.4,70.6,29.88,NW,324,0.0,1.0,88,0.00,,---,0.07,VWS V14.01,2013-07-22 01:43:00,
2013-07-21 21:48:00,74.1,70.3,29.88,NNE,31,0.0,1.0,88,0.00,,---,0.07,VWS V14.01,2013-07-22 01:48:00,
2013-07-21 21:50:00,74.1,70.3,29.88,NNE,31,0.0,1.0,88,0.00,,---,0.07,VWS V14.01,2013-07-22 01:50:00,
2013-07-21 21:53:00,74.0,70.6,29.89,NNE,23,0.0,2.0,89,0.00,,---,0.07,VWS V14.01,2013-07-22 01:53:00,
2013-07-21 21:58:00,73.8,70.4,29.89,NW,311,0.0,2.0,89,0.00,,---,0.07,VWS V14.01,2013-07-22 01:58:00,
2013-07-21 22:00:00,73.7,70.3,29.89,NW,311,0.0,2.0,89,0.00,,---,0.07,VWS V14.01,2013-07-22 02:00:00,
2013-07-21 22:03:00,73.5,70.1,29.89,NW,311,0.0,0.0,89,0.00,,---,0.07,VWS V14.01,2013-07-22 02:03:00,
2013-07-21 22:08:00,73.3,70.2,29.88,NNW,333,0.0,0.0,90,0.00,,---,0.07,VWS V14.01,2013-07-22 02:08:00,
2013-07-21 22:10:00,73.3,70.2,29.88,NNW,332,0.0,0.0,90,0.00,,---,0.07,VWS V14.01,2013-07-22 02:10:00,
2013-07-21 22:13:00,73.2,69.8,29.88,WNW,294,0.0,0.0,89,0.00,,---,0.07,VWS V14.01,2013-07-22 02:13:00,
2013-07-21 22:18:00,73.1,70.0,29.88,WNW,294,0.0,0.0,90,0.00,,---,0.07,VWS V14.01,2013-07-22 02:18:00,
2013-07-21 22:20:00,73.1,70.0,29.88,WNW,294,0.0,0.0,90,0.00,,---,0.07,VWS V14.01,2013-07-22 02:20:00,
2013-07-21 22:23:00,72.9,70.1,29.89,WNW,294,0.0,0.0,91,0.00,,---,0.07,VWS V14.01,2013-07-22 02:23:00,
2013-07-21 22:28:00,72.6,69.8,29.89,WNW,293,0.0,0.0,91,0.00,,---,0.07,VWS V14.01,2013-07-22 02:28:00,
2013-07-21 22:30:00,72.7,69.9,29.89,WNW,293,0.0,0.0,91,0.00,,---,0.07,VWS V14.01,2013-07-22 02:30:00,
2013-07-21 22:33:00,72.6,69.8,29.89,WNW,294,0.0,0.0,91,0.00,,---,0.07,VWS V14.01,2013-07-22 02:33:00,
2013-07-21 22:38:00,72.5,69.4,29.89,NNE,15,0.0,0.0,90,0.00,,---,0.07,VWS V14.01,2013-07-22 02:38:00,
2013-07-21 22:40:00,72.5,69.4,29.89,NNE,15,0.0,0.0,90,0.00,,---,0.07,VWS V14.01,2013-07-22 02:40:00,
2013-07-21 22:43:00,72.5,69.4,29.89,NNE,16,0.0,0.0,90,0.00,,---,0.07,VWS V14.01,2013-07-22 02:43:00,
2013-07-21 22:48:00,72.4,69.3,29.89,NNE,16,0.0,0.0,90,0.00,,---,0.07,VWS V14.01,2013-07-22 02:48:00,
2013-07-21 22:50:00,72.3,69.2,29.89,NNE,16,0.0,0.0,90,0.00,,---,0.07,VWS V14.01,2013-07-22 02:50:00,
2013-07-21 22:53:00,72.2,69.1,29.89,NNE,16,0.0,0.0,90,0.00,,---,0.07,VWS V14.01,2013-07-22 02:53:00,
2013-07-21 22:58:00,72.0,68.9,29.89,NNE,16,0.0,0.0,90,0.00,,---,0.07,VWS V14.01,2013-07-22 02:58:00,
2013-07-21 23:00:00,72.0,68.9,29.89,NNE,16,0.0,0.0,90,0.00,,---,0.07,VWS V14.01,2013-07-22 03:00:00,
2013-07-21 23:03:00,71.9,68.8,29.89,NNE,15,0.0,0.0,90,0.00,,---,0.07,VWS V14.01,2013-07-22 03:03:00,
2013-07-21 23:08:00,71.7,68.9,29.89,NNE,16,0.0,0.0,91,0.00,,---,0.07,VWS V14.01,2013-07-22 03:08:00,
2013-07-21 23:10:00,71.7,68.9,29.89,NNE,16,0.0,0.0,91,0.00,,---,0.07,VWS V14.01,2013-07-22 03:10:00,
2013-07-21 23:13:00,71.5,68.7,29.89,NNE,15,0.0,0.0,91,0.00,,---,0.07,VWS V14.01,2013-07-22 03:13:00,
2013-07-21 23:18:00,71.4,69.0,29.90,NNE,15,0.0,0.0,92,0.00,,---,0.07,VWS V14.01,2013-07-22 03:18:00,
2013-07-21 23:20:00,71.4,69.0,29.90,NNE,15,0.0,0.0,92,0.00,,---,0.07,VWS V14.01,2013-07-22 03:20:00,
2013-07-21 23:23:00,71.3,68.9,29.90,NNE,15,0.0,0.0,92,0.00,,---,0.07,VWS V14.01,2013-07-22 03:23:00,
2013-07-21 23:28:00,71.1,68.7,29.90,NNE,16,0.0,0.0,92,0.00,,---,0.07,VWS V14.01,2013-07-22 03:28:00,
2013-07-21 23:30:00,71.1,68.7,29.90,NNE,16,0.0,0.0,92,0.00,,---,0.07,VWS V14.01,2013-07-22 03:30:00,
2013-07-21 23:33:00,71.1,68.7,29.90,NNE,16,0.0,0.0,92,0.00,,---,0.07,VWS V14.01,2013-07-22 03:33:00,
2013-07-21 23:38:00,71.1,69.0,29.90,SSE,157,0.0,0.0,93,0.00,,---,0.07,VWS V14.01,2013-07-22 03:38:00,
2013-07-21 23:40:00,71.1,69.0,29.90,SSE,157,0.0,0.0,93,0.00,,---,0.07,VWS V14.01,2013-07-22 03:40:00,
2013-07-21 23:43:00,71.0,68.9,29.90,South,171,0.0,0.0,93,0.00,,---,0.07,VWS V14.01,2013-07-22 03:43:00,
2013-07-21 23:48:00,71.0,68.9,29.90,South,171,0.0,0.0,93,0.00,,---,0.07,VWS V14.01,2013-07-22 03:48:00,
2013-07-21 23:50:00,71.0,68.9,29.90,South,171,0.0,0.0,93,0.00,,---,0.07,VWS V14.01,2013-07-22 03:50:00,
2013-07-21 23:53:00,70.9,68.8,29.90,South,171,0.0,0.0,93,0.00,,---,0.07,VWS V14.01,2013-07-22 03:53:00,